Location: Trebic
(49.2170°N, 15.8830°E)
Time: 10:47:35
(UTC+02:00)

Transit 2A Rocket - Pass Details

Date: 31 July 2019
Orbit: 590 x 913 km, 66.7° (Epoch: 21 August)

Event Time Altitude Azimuth Distance (km) Brightness Sun altitude
Rises 07:12:37 0° 320° (NW) 3,279 8.0 15.3°
Reaches altitude 10° 07:16:30 10° 347° (NNW) 2,267 7.5 16.0°
Maximum altitude 07:18:56 13° 15° (NNE) 1,999 7.6 16.3°
Drops below altitude 10° 07:21:17 10° 44° (NE) 2,163 8.3 16.7°
Sets 07:24:48 0° 72° (ENE) 3,004 9.7 17.3°
